Heure de lever du soleil au 19-11-2017 / 322 ° de l'année/ semaine 4608 h 03 Heure de coucher du soleil au 19-11-2017 / 322 ° de l'année/ semaine 4617 h 07

Compte Facebook Association Météo Centre     Compte Twitter Association Météo Centre - @AssoMétéoCentre     Chaîne Youtube Association Météo Centre     Bouton contact Association Météo Centre 

Gif alerte météo

Choix de la station :
Période à consulter :
Aujourd'hui


 

Conditions météo à Abbeville - Altitude 77m

  

Date du relevé19/11/2017 à 20:00
Visibilité20km
Vent2 km/h SSO
Température4.4 °C
Humidité80.8 %
Point de rosée1.4 °C
Pression absolue1015.7 hPa
Pression relative1024.7 hPa
Variation pression+0.5 hPa en hausse puis stationnaire ou en hausse, puis en hausse plus lente


Historique météo des dernières 24 heures à Abbeville


Date - Heure Base des nuages Visibilité Nébulosité Vent Température Humidité Point rosée Pression Précipitations Temps
19/11 20:00 20km 2 km/h SSO 4.4 °C 80.8 % 1.4 °C 1024.7 hPa
19/11 19:00 20km 4 km/h O 4.4 °C 79.7 % 1.2 °C 1024.8 hPa 0 mm/12h
19/11 18:00 20km 4 km/h O 4.3 °C 80.8 % 1.3 °C 1024.3 hPa
19/11 17:00 40km 6/8 4 km/h O 5.5 °C 78.2 % 2 °C 1024.2 hPa
19/11 16:00 600 à 1000m 40km 5/8 6 km/h O 7.5 °C 67.1 % 1.8 °C 1024.1 hPa
19/11 15:00 600 à 1000m 40km 6/8 7 km/h O 8 °C 67.7 % 2.4 °C 1023.9 hPa
19/11 14:00 600 à 1000m 40km 7/8 6 km/h NO 8.1 °C 67.7 % 2.5 °C 1024 hPa
19/11 13:00 600 à 1000m 40km 7/8 6 km/h ONO 7.9 °C 66.7 % 2.1 °C 1024.1 hPa 0 mm/6h
19/11 12:00 1000 à 1500m 40km 6/8 6 km/h NO 7.3 °C 73.1 % 2.8 °C 1024.2 hPa
19/11 11:00 1000 à 1500m 40km 6/8 4 km/h NNO 6.5 °C 75 % 2.4 °C 1024.1 hPa
19/11 10:00 20km 4 km/h NO 4.8 °C 86.3 % 2.7 °C 1023.6 hPa
19/11 09:00 600 à 1000m 40km 1/8 4 km/h NO 3.5 °C 91.8 % 2.3 °C 1022.9 hPa
19/11 08:00 600 à 1000m 30km 3/8 2 km/h NO 3.3 °C 93.8 % 2.4 °C 1022.3 hPa
19/11 07:00 20km 1/8 4 km/h NO 3.6 °C 93.8 % 2.7 °C 1021.8 hPa 13 mm/12h
19/11 06:00 20km 1/8 2 km/h NO 3.5 °C 91.2 % 2.2 °C 1021.3 hPa
19/11 05:00 19km 4 km/h ONO 4.7 °C 93.2 % 3.7 °C 1021.3 hPa
19/11 04:00 19km 6 km/h NO 5.8 °C 90.7 % 4.4 °C 1020.8 hPa
19/11 03:00 15km 6 km/h NO 6.6 °C 95.3 % 5.9 °C 1020.6 hPa
19/11 02:00 19km 4 km/h NO 7.6 °C 96 % 7 °C 1020.3 hPa
19/11 01:00 6km 4 km/h O 7.8 °C 97.3 % 7.4 °C 1020.2 hPa 13 mm/6h
19/11 00:00 6km 6 km/h NO 7.8 °C 96 % 7.2 °C 1020.1 hPa
18/11 23:00 4400m 9 km/h N 8.2 °C 94.1 % 7.3 °C 1019.9 hPa
18/11 22:00 4300m 15 km/h ONO 10.4 °C 94.8 % 9.6 °C 1019.6 hPa
18/11 21:00 3900m 15 km/h O 10.3 °C 96.7 % 9.8 °C 1019.6 hPa

L'association Météo Centre n'est pas responsable de la mise à jour de ces données.

Météo-Centre.fr depuis 2008
Nos informations ne doivent jamais servir à la protection des biens et des personnes. Elles n'engagent pas la responsabilité de l'association Météo Centre.
Contact - Haut de page - Partenaires - Mentions légales